[[{"header":{"parameterUnit":"m.s-1","parameterCategory":1,"la1":30.2991,"la2":30.254,"lo1":-89.0895,"lo2":-89.0444,"dx":0.0017,"dy":0.0017,"nx":28,"ny":28,"refTime":"2022-12-29T09:00:00:Z","depth":0,"parameterNumber":2,"parameterNumberName":"U-component_of_WINDS"},"data":[0,0,0,0,0,0,0,0,0,0,0,0,0,0,0,0,0,0,0,0,0,0,0,0,0,0,0,0,0,0,0,0,0,0,0,0,0,0,0,0,0,0,0,0,0,0,0,0,0,0,0,0,0,0,0,0,0,0,-3.2577,-3.2576,0,-3.2526,-3.2525,-3.2525,-3.2392,-3.239,-3.2387,-3.2384,-3.2336,-3.2337,-3.2339,0,0,0,0,0,0,0,0,0,0,0,0,0,-3.2564,-3.2565,-3.2577,-3.2576,-3.2576,-3.2526,-3.2525,-3.2525,-3.2393,-3.2389,-3.2386,-3.2383,-3.2335,-3.2337,-3.2339,0,0,0,0,0,0,0,0,0,0,0,0,0,-3.2548,-3.2566,-3.2577,-3.2504,-3.2497,-3.2526,-3.2525,-3.2525,-3.2394,-3.2389,-3.2385,-3.2381,-3.2335,-3.2337,-3.2339,-3.2437,0,0,-3.2345,-3.2346,0,0,0,0,0,0,0,0,-3.2549,-3.2548,-3.2515,-3.2509,-3.2501,-3.2461,-3.2503,-3.2495,-3.2395,-3.2433,-3.2384,-3.2379,-3.2381,-3.2379,-3.2379,-3.2434,-3.2432,-3.2345,-3.2347,-3.2347,-3.2348,0,0,0,0,0,0,0,-3.255,-3.255,-3.2557,-3.2515,-3.2506,-3.2475,-3.2468,-3.2501,-3.2432,-3.2429,-3.2419,-3.2415,-3.2377,-3.2377,-3.2377,-3.2431,-3.2345,-3.2347,-3.2348,-3.2349,-3.2565,-3.2569,0,0,0,0,0,0,-3.2561,-3.2551,-3.2558,-3.2555,-3.2515,-3.2479,-3.2471,-3.2478,-3.2431,-3.2419,-3.2419,-3.2409,-3.2376,-3.2375,-3.2375,-3.2486,-3.2347,-3.2349,-3.235,-3.2561,-3.2566,-3.2571,0,0,0,0,0,0,-3.2561,-3.2563,-3.2561,-3.2551,-3.2548,-3.2483,-3.2493,-3.248,-3.248,-3.2423,-3.241,-3.2432,-3.2373,-3.2372,-3.2422,-3.2482,-3.235,-3.2352,-3.2555,-3.2562,-3.2569,-3.2709,0,0,0,0,0,0,-3.2562,-3.2564,-3.2599,-3.2552,-3.2549,-3.2608,-3.2497,-3.2482,-3.2484,-3.247,-3.2432,-3.2422,-3.2369,-3.242,-3.2424,-3.2483,-3.2354,-3.255,-3.2558,-3.2566,-3.2699,-3.272,-3.2738,0,0,0,0,0,-3.2562,-3.2642,-3.2602,-3.2603,-3.2592,-3.2611,-3.2609,-3.2546,-3.2489,-3.2525,-3.2488,-3.2423,-3.2476,-3.2426,-3.243,-3.249,-3.2545,-3.2556,-3.2566,-3.269,-3.2716,-3.2738,0,0,0,0,0,0,-3.2698,-3.2634,-3.2589,-3.2656,-3.264,-3.2589,-3.2632,-3.2576,-3.2577,-3.2564,-3.2487,-3.248,-3.2541,-3.252,-3.2467,-3.2583,-3.25,-3.2511,-3.2593,-3.2617,-3.2636,-3.264,-3.2355,0,0,0,0,0,-3.2736,-3.2756,-3.2699,-3.2764,-3.2758,-3.2697,-3.2703,-3.2656,-3.2637,-3.263,-3.2597,-3.2582,-3.2595,-3.2605,-3.2614,-3.2696,-3.2686,-3.2739,-3.2759,-3.2775,-3.2786,-3.2828,-3.2851,-3.2604,-3.2604,-3.2604,0,0,-3.2814,-3.2782,-3.2799,-3.2791,-3.2773,-3.2796,-3.2692,-3.2721,-3.2739,-3.2635,-3.2679,-3.2655,-3.2634,-3.27,-3.2728,-3.2685,-3.2852,-3.2788,-3.2802,-3.2803,-3.2841,-3.2865,-3.2885,-3.2611,-3.261,-3.2609,0,0,-3.2969,-3.2946,-3.2997,-3.2982,-3.2955,-3.2914,-3.2927,-3.2885,-3.2864,-3.2908,-3.283,-3.2851,-3.2875,-3.2863,-3.286,-3.3012,-3.2952,-3.3017,-3.3119,-3.3161,-3.3181,-3.3198,-3.3252,-3.3272,-3.3028,-3.3029,-3.3029,0,-3.3069,-3.31,-3.3031,-3.3065,-3.3065,-3.2971,-3.3023,-3.3012,-3.2991,-3.2993,-3.2945,-3.2974,-3.2953,-3.3015,-3.3052,-3.3053,-3.3066,-3.302,-3.3183,-3.32,-3.3214,-3.3265,-3.3286,-3.3037,-3.3036,-3.3035,-3.3034,0,-3.3226,-3.3249,-3.3294,-3.3275,-3.3279,-3.3323,-3.3261,-3.3274,-3.3228,-3.3192,-3.3239,-3.321,-3.3212,-3.3224,-3.3179,-3.3281,-3.3255,-3.3197,-3.3112,-3.3247,-3.3293,-3.3312,-3.3048,-3.3045,-3.3043,-3.3041,0,0,-3.3463,-3.3406,-3.3423,-3.3414,-3.3379,-3.3396,-3.3437,-3.3437,-3.345,-3.3439,-3.3471,-3.3495,-3.3441,-3.3438,-3.3391,-3.3428,-3.3551,-3.3365,-3.3363,-3.34,-3.3661,-3.3705,-3.3728,-3.3511,-3.3515,-3.3518,-3.3663,0,-3.3608,-3.3671,-3.3611,-3.3687,-3.3708,-3.362,-3.3655,-3.3639,-3.3607,-3.3622,-3.3588,-3.3605,-3.3533,-3.353,-3.3563,-3.3529,-3.3602,-3.3518,-3.3541,-3.3543,-3.3548,-3.3753,-3.3798,-3.3937,-3.3681,-3.3684,-3.3686,0,-3.3785,-3.3782,-3.3859,-3.382,-3.3827,-3.3859,-3.3855,-3.387,-3.385,-3.3825,-3.3823,-3.3766,-3.3804,-3.3722,-3.3774,-3.3718,-3.3725,-3.371,-3.3713,-3.3712,-3.3622,-3.3757,-3.3979,-3.4,-3.3714,-3.3712,-3.371,0,-3.395,-3.3965,-3.4013,-3.4008,-3.3964,-3.3989,-3.3972,-3.3947,-3.3952,-3.395,-3.3952,-3.3955,-3.3956,-3.3961,-3.3907,-3.3852,-3.3966,-3.388,-3.3946,-3.3948,-3.3973,-3.3972,-3.42,-3.398,-3.3979,-3.3979,-3.3978,0,-3.4117,-3.4168,-3.4086,-3.4116,-3.4171,-3.4103,-3.4159,-3.4134,-3.4113,-3.4138,-3.4063,-3.4088,-3.4015,-3.4033,-3.3992,-3.4041,-3.4043,-3.4024,-3.4012,-3.403,-3.4033,-3.4032,-3.4021,-3.3984,-3.3983,-3.3982,-3.3981,0,-3.431,-3.4257,-3.4304,-3.4258,-3.4248,-3.4291,-3.4252,-3.4279,-3.4243,-3.4275,-3.4279,-3.4223,-3.424,-3.4187,-3.4196,-3.4168,-3.4241,-3.4214,-3.4247,-3.4238,-3.4308,-3.4302,-3.4543,-3.4571,-3.4334,-3.4337,-3.4339,0,-3.4419,-3.4456,-3.4415,-3.4425,-3.4412,-3.443,-3.4434,-3.4369,-3.4376,-3.4358,-3.4387,-3.4398,-3.4402,-3.4434,-3.4396,-3.4403,-3.4375,-3.4459,-3.4375,-3.4392,-3.4375,-3.4373,-3.4377,-3.4476,-3.4479,-3.4481,-3.4483,0,-3.462,-3.4592,-3.46,-3.46,-3.4607,-3.4604,-3.4596,-3.4609,-3.4539,-3.4552,-3.4568,-3.4572,-3.4581,-3.4593,-3.4592,-3.4576,-3.4519,-3.451,-3.4525,-3.4543,-3.4561,-3.4552,-3.4293,-3.4504,-3.4502,-3.45,-3.4499,-3.4498,-3.4773,-3.4802,-3.4778,-3.479,-3.4777,-3.4771,-3.4794,-3.4761,-3.4773,-3.4774,-3.4736,-3.476,-3.4741,-3.4733,-3.4723,-3.4742,-3.4703,-3.4726,-3.4732,-3.4739,-3.475,-3.4559,-3.4742,-3.4741,-3.4741,-3.474,-3.474,0,-3.4969,-3.4949,-3.4961,-3.4952,-3.4962,-3.4906,-3.4895,-3.4907,-3.4929,-3.4916,-3.4922,-3.4941,-3.4953,-3.4916,-3.4923,-3.4945,-3.4919,-3.4949,-3.4946,-3.4944,-3.4784,-3.477,-3.497,-3.497,-3.497,-3.497,-3.497,-3.497,-3.5072,-3.5118,-3.5088,-3.5128,-3.5107,-3.5129,-3.5128,-3.5123,-3.5112,-3.5136,-3.5145,-3.5121,-3.5098,-3.5103,-3.5112,-3.5101,-3.5107,-3.5146,-3.5126,-3.4977,-3.4955,-3.4933,-3.4919,-3.5148,-3.5148,-3.5283,-3.5284,-3.5285]},{"header":{"parameterUnit":"m.s-1","parameterCategory":1,"la1":30.2991,"la2":30.254,"lo1":-89.0895,"lo2":-89.0444,"dx":0.0017,"dy":0.0017,"nx":28,"ny":28,"refTime":"2022-12-29T09:00:00:Z","depth":0,"parameterNumber":3,"parameterNumberName":"V-component_of_WINDS"},"data":[0,0,0,0,0,0,0,0,0,0,0,0,0,0,0,0,0,0,0,0,0,0,0,0,0,0,0,0,0,0,0,0,0,0,0,0,0,0,0,0,0,0,0,0,0,0,0,0,0,0,0,0,0,0,0,0,0,0,1.2084,1.2084,0,1.2078,1.2078,1.2078,1.2017,1.2015,1.2014,1.2012,1.2009,1.201,1.2012,0,0,0,0,0,0,0,0,0,0,0,0,0,1.2046,1.2047,1.2084,1.2084,1.2084,1.2078,1.2078,1.2078,1.2017,1.2015,1.2013,1.2011,1.2009,1.201,1.2012,0,0,0,0,0,0,0,0,0,0,0,0,0,1.2053,1.2047,1.2084,1.2052,1.205,1.2078,1.2078,1.2078,1.2017,1.2015,1.2013,1.201,1.2008,1.201,1.2012,1.2071,0,0,1.2018,1.2019,0,0,0,0,0,0,0,0,1.2053,1.2055,1.2057,1.2055,1.2051,1.2046,1.2063,1.2076,1.2018,1.203,1.2012,1.2009,1.2023,1.2024,1.2028,1.2071,1.2071,1.2018,1.202,1.2021,1.2021,0,0,0,0,0,0,0,1.2053,1.2055,1.2081,1.2057,1.2054,1.204,1.2038,1.2065,1.204,1.2028,1.2024,1.2024,1.2021,1.2026,1.2027,1.2071,1.2018,1.202,1.2021,1.2022,1.2163,1.2165,0,0,0,0,0,0,1.2056,1.2055,1.2082,1.2081,1.2047,1.2042,1.2041,1.205,1.2039,1.2035,1.2026,1.2021,1.2024,1.2025,1.2027,1.2096,1.2021,1.2022,1.2024,1.2161,1.2164,1.2166,0,0,0,0,0,0,1.2055,1.2059,1.2082,1.2067,1.2069,1.2046,1.2056,1.2051,1.2056,1.2037,1.2033,1.2035,1.2022,1.2024,1.2061,1.2095,1.2023,1.2025,1.2158,1.2162,1.2165,1.2235,0,0,0,0,0,0,1.2055,1.2059,1.208,1.2068,1.207,1.2115,1.2058,1.2053,1.2059,1.2053,1.2045,1.2041,1.202,1.2058,1.2063,1.2097,1.2027,1.2154,1.2159,1.2164,1.2229,1.224,1.225,0,0,0,0,0,1.2053,1.21,1.2082,1.2085,1.2095,1.2117,1.2118,1.2092,1.2062,1.2084,1.2072,1.2042,1.2091,1.2062,1.2067,1.2102,1.2152,1.2158,1.2163,1.2225,1.2238,1.225,0,0,0,0,0,0,1.2118,1.2098,1.2077,1.2121,1.2121,1.2106,1.2133,1.2107,1.2116,1.211,1.2078,1.2077,1.2119,1.2114,1.2083,1.216,1.2116,1.2123,1.2161,1.2174,1.2184,1.2185,1.2028,0,0,0,0,0,1.2138,1.2155,1.2137,1.2178,1.2179,1.2156,1.2164,1.2144,1.2143,1.2143,1.2134,1.2135,1.2151,1.2162,1.2175,1.2228,1.2226,1.2255,1.2265,1.2274,1.2281,1.231,1.2323,1.2185,1.2185,1.2185,0,0,1.2178,1.2169,1.2182,1.2191,1.2188,1.2209,1.2156,1.218,1.2195,1.2147,1.2181,1.2175,1.2174,1.2219,1.2238,1.2216,1.2318,1.2281,1.2288,1.229,1.2317,1.233,1.2342,1.2189,1.2188,1.2188,0,0,1.2262,1.2257,1.229,1.2289,1.2286,1.2271,1.2279,1.2268,1.2262,1.2295,1.226,1.2278,1.2306,1.2307,1.2311,1.2397,1.237,1.2403,1.2457,1.2486,1.2497,1.2506,1.2538,1.255,1.2409,1.2409,1.241,0,1.2313,1.2341,1.2311,1.2337,1.2343,1.23,1.2335,1.2335,1.2337,1.2343,1.2318,1.2352,1.2348,1.2394,1.2415,1.2419,1.2429,1.2404,1.2497,1.2507,1.2515,1.2545,1.2557,1.2413,1.2413,1.2413,1.2412,0,1.2404,1.2425,1.2453,1.2455,1.2463,1.2494,1.247,1.2483,1.2463,1.2451,1.2486,1.248,1.2492,1.2502,1.2482,1.2545,1.2532,1.2503,1.2459,1.2533,1.2561,1.2572,1.2419,1.2418,1.2417,1.2416,0,0,1.2529,1.2515,1.2526,1.2527,1.252,1.2536,1.2566,1.2577,1.2589,1.2592,1.2617,1.2641,1.2615,1.262,1.26,1.2625,1.2696,1.2593,1.2593,1.2614,1.2767,1.2789,1.2803,1.2678,1.268,1.2681,1.2767,0,1.261,1.2658,1.2633,1.2685,1.2705,1.2665,1.2691,1.2691,1.268,1.2696,1.2685,1.2704,1.2666,1.2669,1.2692,1.2682,1.2726,1.2676,1.2702,1.2703,1.2704,1.2817,1.2841,1.2922,1.2778,1.2779,1.2781,0,1.2712,1.2719,1.2773,1.2764,1.2771,1.2795,1.2804,1.2819,1.2819,1.281,1.2816,1.2791,1.2821,1.2777,1.2818,1.2785,1.2794,1.2791,1.2793,1.2795,1.2747,1.2823,1.2947,1.296,1.2797,1.2796,1.2795,0,1.2799,1.2822,1.2857,1.2859,1.285,1.2868,1.2865,1.2862,1.2871,1.2879,1.2885,1.2897,1.2904,1.2914,1.2894,1.2863,1.2939,1.2892,1.2933,1.2934,1.2951,1.2951,1.3079,1.2956,1.2956,1.2956,1.2955,0,1.2893,1.2928,1.2896,1.2918,1.2957,1.2928,1.2968,1.296,1.2959,1.298,1.2946,1.2967,1.2938,1.2956,1.2941,1.2978,1.2981,1.2976,1.2972,1.2979,1.298,1.2986,1.298,1.2959,1.2958,1.2957,1.2957,0,1.2997,1.2977,1.3013,1.3001,1.2999,1.3028,1.3019,1.3039,1.3027,1.3054,1.3059,1.304,1.306,1.3041,1.3059,1.3049,1.31,1.3087,1.31,1.3097,1.3139,1.3136,1.3276,1.3294,1.3158,1.316,1.3161,0,1.3059,1.3085,1.3076,1.3087,1.3086,1.3104,1.3113,1.3087,1.3097,1.31,1.3121,1.3138,1.315,1.3184,1.3173,1.3188,1.3175,1.3224,1.3177,1.3185,1.3178,1.3177,1.318,1.3233,1.3235,1.3236,1.3237,0,1.3171,1.316,1.3173,1.3184,1.3195,1.3203,1.3207,1.3219,1.3191,1.3206,1.3225,1.3235,1.3254,1.3272,1.3284,1.3282,1.3256,1.3252,1.3262,1.3271,1.3278,1.3276,1.3127,1.3249,1.3248,1.3247,1.3246,1.3246,1.3257,1.3278,1.3276,1.3292,1.3293,1.3298,1.3317,1.3308,1.3323,1.3336,1.332,1.3345,1.3345,1.3358,1.336,1.338,1.3359,1.3374,1.3378,1.3383,1.3389,1.3274,1.3381,1.3381,1.3381,1.338,1.338,0,1.3369,1.3365,1.338,1.3388,1.3401,1.3375,1.3379,1.3392,1.3414,1.3416,1.3429,1.3453,1.347,1.3461,1.3476,1.3494,1.3483,1.3499,1.3498,1.3499,1.3406,1.3396,1.3508,1.3508,1.3508,1.3508,1.3508,1.3508,1.3428,1.3464,1.3453,1.349,1.3486,1.3509,1.3514,1.352,1.3521,1.3549,1.3563,1.3556,1.3554,1.357,1.3585,1.3582,1.359,1.3611,1.3604,1.3518,1.3505,1.3493,1.3483,1.3613,1.3613,1.3695,1.3696,1.3697]}]]